Météo par heure à Allmendingen

Ce jour, 15 Mai, Samedi

Heure Température Précipitation Vent Pression Humidité
00:00 +5°C° 0.1 mm 3 m/s 704 mmHg 94%
01:00 +6°C° 0 mm 2 m/s 704 mmHg 94%
02:00 +4°C° 0 mm 3 m/s 704 mmHg 94%
03:00 +4°C° 0 mm 3 m/s 704 mmHg 95%
04:00 +4°C° 0 mm 3 m/s 704 mmHg 95%
05:00 +4°C° 0 mm 3 m/s 704 mmHg 93%
06:00 +5°C° 0 mm 3 m/s 704 mmHg 91%
07:00 +7°C° 0 mm 3 m/s 704 mmHg 90%
08:00 +8°C° 0 mm 3 m/s 703 mmHg 83%
09:00 +10°C° 0 mm 3 m/s 703 mmHg 77%
10:00 +11°C° 0 mm 4 m/s 703 mmHg 70%
11:00 +12°C° 0.2 mm 4 m/s 702 mmHg 66%
12:00 +13°C° 0.2 mm 4 m/s 702 mmHg 61%
13:00 +14°C° 0.2 mm 5 m/s 701 mmHg 56%
14:00 +13°C° 0.2 mm 5 m/s 701 mmHg 64%
15:00 +12°C° 0.2 mm 5 m/s 701 mmHg 71%
16:00 +10°C° 0.2 mm 6 m/s 701 mmHg 78%
17:00 +8°C° 0.4 mm 6 m/s 701 mmHg 83%
18:00 +7°C° 0.4 mm 6 m/s 702 mmHg 88%
19:00 +5°C° 0.4 mm 6 m/s 702 mmHg 93%
20:00 +6°C° 0.7 mm 5 m/s 702 mmHg 94%
21:00 +6°C° 0.7 mm 5 m/s 702 mmHg 94%
22:00 +5°C° 0.7 mm 4 m/s 702 mmHg 95%
23:00 +5°C° 0.2 mm 4 m/s 702 mmHg 94%

Demain, 16 Mai, Dimanche

Heure Température Précipitation Vent Pression Humidité
00:00 +5°C° 0.2 mm 4 m/s 702 mmHg 94%
01:00 +5°C° 0.2 mm 4 m/s 702 mmHg 94%
02:00 +5°C° 0 mm 5 m/s 702 mmHg 94%
03:00 +5°C° 0 mm 5 m/s 702 mmHg 94%
04:00 +5°C° 0 mm 5 m/s 702 mmHg 94%
05:00 +6°C° 0 mm 5 m/s 702 mmHg 93%
06:00 +6°C° 0 mm 4 m/s 702 mmHg 93%
07:00 +7°C° 0 mm 3 m/s 702 mmHg 92%
08:00 +7°C° 0.1 mm 4 m/s 702 mmHg 88%
09:00 +8°C° 0.1 mm 4 m/s 702 mmHg 84%
10:00 +9°C° 0.1 mm 5 m/s 701 mmHg 80%
11:00 +10°C° 1.1 mm 4 m/s 701 mmHg 84%
12:00 +8°C° 1.1 mm 4 m/s 701 mmHg 88%
13:00 +8°C° 1.1 mm 4 m/s 701 mmHg 92%
14:00 +8°C° 0.8 mm 4 m/s 701 mmHg 92%
15:00 +8°C° 0.8 mm 5 m/s 701 mmHg 92%
16:00 +8°C° 0.8 mm 6 m/s 701 mmHg 93%
17:00 +8°C° 0.6 mm 6 m/s 701 mmHg 92%
18:00 +8°C° 0.6 mm 6 m/s 701 mmHg 91%
19:00 +8°C° 0.6 mm 6 m/s 701 mmHg 91%
20:00 +8°C° 0.8 mm 6 m/s 701 mmHg 91%
21:00 +7°C° 0.8 mm 6 m/s 701 mmHg 90%
22:00 +7°C° 0.8 mm 6 m/s 701 mmHg 90%
23:00 +5°C° 0 mm 6 m/s 701 mmHg 91%

Après-demain, 17 Mai, Lundi

Heure Température Précipitation Vent Pression Humidité
00:00 +5°C° 0 mm 6 m/s 701 mmHg 91%
01:00 +5°C° 0 mm 6 m/s 701 mmHg 92%
02:00 +5°C° 0 mm 5 m/s 701 mmHg 92%
03:00 +5°C° 0 mm 5 m/s 701 mmHg 93%
04:00 +5°C° 0 mm 5 m/s 702 mmHg 93%
05:00 +5°C° 0 mm 5 m/s 702 mmHg 90%
06:00 +5°C° 0 mm 6 m/s 702 mmHg 87%
07:00 +5°C° 0 mm 6 m/s 703 mmHg 84%
08:00 +5°C° 0.1 mm 6 m/s 703 mmHg 83%
09:00 +6°C° 0.1 mm 7 m/s 703 mmHg 83%
10:00 +6°C° 0.1 mm 7 m/s 703 mmHg 82%
11:00 +6°C° 0.3 mm 7 m/s 704 mmHg 84%
12:00 +6°C° 0.3 mm 7 m/s 704 mmHg 86%
13:00 +6°C° 0.3 mm 7 m/s 704 mmHg 88%
14:00 +6°C° 0.2 mm 7 m/s 704 mmHg 85%
15:00 +8°C° 0.2 mm 7 m/s 704 mmHg 81%
16:00 +9°C° 0.2 mm 7 m/s 704 mmHg 77%
17:00 +8°C° 0.1 mm 7 m/s 704 mmHg 79%
18:00 +8°C° 0.1 mm 6 m/s 704 mmHg 82%
19:00 +7°C° 0.1 mm 6 m/s 704 mmHg 84%
20:00 +7°C° 0 mm 6 m/s 704 mmHg 84%
21:00 +6°C° 0 mm 5 m/s 704 mmHg 85%
22:00 +6°C° 0 mm 5 m/s 705 mmHg 85%
23:00 +6°C° 0.1 mm 5 m/s 705 mmHg 85%

18 Mai, Mardi

Heure Température Précipitation Vent Pression Humidité
00:00 +5°C° 0.1 mm 6 m/s 705 mmHg 85%
01:00 +5°C° 0.1 mm 6 m/s 705 mmHg 85%
02:00 +5°C° 0.1 mm 6 m/s 705 mmHg 87%
03:00 +5°C° 0.1 mm 6 m/s 705 mmHg 88%
04:00 +5°C° 0.1 mm 6 m/s 705 mmHg 90%
05:00 +5°C° 1 mm 6 m/s 706 mmHg 91%
06:00 +4°C° 1 mm 6 m/s 706 mmHg 93%
07:00 +4°C° 1 mm 6 m/s 707 mmHg 94%
08:00 +4°C° 0.6 mm 6 m/s 707 mmHg 94%
09:00 +4°C° 0.6 mm 7 m/s 707 mmHg 94%
10:00 +4°C° 0.6 mm 7 m/s 708 mmHg 94%
11:00 +4°C° 0.2 mm 7 m/s 708 mmHg 94%
12:00 +4°C° 0.2 mm 7 m/s 708 mmHg 94%
13:00 +4°C° 0.2 mm 6 m/s 709 mmHg 94%
14:00 +5°C° 0.1 mm 6 m/s 709 mmHg 92%
15:00 +5°C° 0.1 mm 6 m/s 709 mmHg 89%
16:00 +7°C° 0.1 mm 6 m/s 709 mmHg 87%
17:00 +5°C° 0.1 mm 6 m/s 709 mmHg 87%
18:00 +5°C° 0.1 mm 6 m/s 710 mmHg 86%
19:00 +6°C° 0.1 mm 5 m/s 710 mmHg 86%
20:00 +6°C° 0.1 mm 5 m/s 710 mmHg 88%
21:00 +5°C° 0.1 mm 5 m/s 710 mmHg 91%
22:00 +4°C° 0.1 mm 4 m/s 711 mmHg 93%
23:00 +4°C° 0.1 mm 4 m/s 711 mmHg 93%

19 Mai, Mercredi

Heure Température Précipitation Vent Pression Humidité
00:00 +3°C° 0.1 mm 5 m/s 711 mmHg 93%
01:00 +3°C° 0.1 mm 5 m/s 710 mmHg 93%
02:00 +4°C° 0.1 mm 4 m/s 710 mmHg 93%
03:00 +4°C° 0.1 mm 4 m/s 710 mmHg 94%
04:00 +4°C° 0.1 mm 4 m/s 710 mmHg 94%
05:00 +4°C° 0.3 mm 4 m/s 710 mmHg 94%
06:00 +5°C° 0.3 mm 5 m/s 710 mmHg 94%
07:00 +5°C° 0.3 mm 5 m/s 710 mmHg 94%
08:00 +5°C° 0.8 mm 5 m/s 710 mmHg 94%
09:00 +5°C° 0.8 mm 5 m/s 710 mmHg 94%
10:00 +4°C° 0.8 mm 6 m/s 710 mmHg 94%
11:00 +5°C° 0.7 mm 6 m/s 710 mmHg 93%
12:00 +5°C° 0.7 mm 6 m/s 710 mmHg 93%
13:00 +5°C° 0.7 mm 6 m/s 711 mmHg 92%
14:00 +7°C° 0.4 mm 6 m/s 711 mmHg 89%
15:00 +7°C° 0.4 mm 6 m/s 711 mmHg 87%
16:00 +8°C° 0.4 mm 6 m/s 711 mmHg 84%
17:00 +7°C° 0.3 mm 5 m/s 711 mmHg 86%
18:00 +7°C° 0.3 mm 5 m/s 711 mmHg 87%
19:00 +6°C° 0.3 mm 5 m/s 712 mmHg 89%
20:00 +5°C° 0 mm 4 m/s 712 mmHg 90%
21:00 +4°C° 0 mm 4 m/s 712 mmHg 92%
22:00 +3°C° 0 mm 3 m/s 712 mmHg 94%
23:00 +3°C° 0 mm 3 m/s 712 mmHg 94%

20 Mai, Jeudi

Heure Température Précipitation Vent Pression Humidité
00:00 +2°C° 0 mm 3 m/s 712 mmHg 94%
01:00 +2°C° 0 mm 3 m/s 712 mmHg 93%
02:00 +2°C° 0 mm 3 m/s 712 mmHg 93%
03:00 +2°C° 0 mm 2 m/s 712 mmHg 93%
04:00 +2°C° 0 mm 2 m/s 711 mmHg 92%
05:00 +3°C° 0 mm 2 m/s 711 mmHg 91%
06:00 +5°C° 0 mm 2 m/s 711 mmHg 89%
07:00 +6°C° 0 mm 2 m/s 711 mmHg 87%
08:00 +8°C° 0 mm 3 m/s 710 mmHg 79%
09:00 +9°C° 0 mm 3 m/s 710 mmHg 71%
10:00 +11°C° 0 mm 4 m/s 710 mmHg 63%
11:00 +12°C° 0 mm 4 m/s 709 mmHg 61%
12:00 +12°C° 0 mm 4 m/s 709 mmHg 59%
13:00 +13°C° 0 mm 5 m/s 709 mmHg 57%
14:00 +14°C° 0 mm 5 m/s 708 mmHg 58%
15:00 +14°C° 0 mm 5 m/s 708 mmHg 59%
16:00 +15°C° 0 mm 4 m/s 707 mmHg 59%
17:00 +14°C° 0 mm 4 m/s 707 mmHg 64%
18:00 +13°C° 0 mm 4 m/s 706 mmHg 69%
19:00 +12°C° 0 mm 3 m/s 706 mmHg 74%
20:00 +12°C° 0.1 mm 4 m/s 706 mmHg 78%
21:00 +10°C° 0.1 mm 5 m/s 706 mmHg 82%
22:00 +9°C° 0.1 mm 6 m/s 706 mmHg 86%
23:00 +8°C° 0.2 mm 7 m/s 706 mmHg 87%
Voir plus

Nous avons besoin de votre consentement

Meteoprog et ses fournisseurs de services peuvent stocker et accéder à des données personnelles telles que des cookies, des identifiants d'appareils ou d'autres technologies similaires sur votre appareil et traiter ces données pour personnaliser le contenu et les publicités, ainsi que pour fournir des fonctionnalités de médias sociaux et analyser le trafic.

  • Stocker et/ou accéder à des informations sur votre appareil

    Des cookies, des identifiants d'appareils ou d'autres informations peuvent être stockés ou accessibles sur votre appareil aux fins indiquées ci-dessus.

  • Annonces et contenus personnalisés, mesure des annonces et des contenus, connaissance de l'audience et développement de produits

    Les annonces et le contenu peuvent être personnalisés en fonction d'un profil. D'autres données peuvent être ajoutées pour mieux personnaliser les annonces et le contenu. Les performances des publicités et du contenu peuvent être mesurées. Il est possible d'obtenir des informations sur le public qui a vu les publicités et le contenu. Ces données peuvent être utilisées pour développer ou améliorer l'expérience de l'utilisateur, les systèmes et les logiciels.

En cliquant sur "J'accepte", vous autorisez l'utilisation de cookies, des identifiants d'appareils, des balises web ou d'autres technologies similaires. Vos paramètres peuvent être modifiés dans le navigateur de votre appareil.

Dans certains cas, des intérêts légitimes peuvent être invoqués plutôt qu'un consentement. Vous pouvez en savoir plus à ce sujet dans notre Politique de confidentialité et de cookies.